Regional Weather Roundup
Issued by NWS

Home | Current Version | Previous Version | Text Only | Print | Product List | Glossary On
Versions: 1 2 3 4 5 6 7 8 9 10 11 12 13 14 15 16 17 18 19 20 21 22 23 24 25 26 27 28 29 30 31 32 33 34 35 36 37 38 39 40 41 42 43 44 45 46 47 48 49 50
316
ASUS43 KMKX 060500
RWRWI

WISCONSIN REGIONAL WEATHER ROUNDUP
NATIONAL WEATHER SERVICE MILWAUKEE/SULLIVAN WI
1200 AM CDT FRI MAY 06 2016

NOTE: "FAIR" INDICATES FEW OR NO CLOUDS BELOW 12,000 FEET WITH NO
SIGNIFICANT WEATHER AND/OR OBSTRUCTIONS TO VISIBILITY.

WIZ001-002-006>008-014>016-023>028-060600-
NORTHWEST WISCONSIN

CITY           SKY/WX    TMP DP  RH WIND       PRES   REMARKS
SUPERIOR ARPT  CLEAR     64  42  43 SW7       29.77F
ASHLAND        PTCLDY    60  40  47 S6        29.81S
HAYWARD        CLEAR     58  39  49 S5        29.85F
SIREN          CLEAR     62  39  42 SW6       29.84F
CUMBERLAND     PTCLDY    52  37  58 CALM      29.87F
RICE LAKE      PTCLDY    56  40  53 CALM      29.89S
CHETEK         PTCLDY    54  46  76 CALM      29.88S
LADYSMITH      CLEAR     56  39  53 SE5       29.90S
EAU CLAIRE     NOT AVBL
MENOMONIE      CLEAR     55  41  60 SE3       29.88F
NEW RICHMOND   CLEAR     58  39  50 S5        29.88S
OSCEOLA        CLEAR     59  42  52 CALM      29.89S
$$

WIZ003>005-009-010-017-018-060600-
NORTH CENTRAL WISCONSIN

CITY           SKY/WX    TMP DP  RH WIND       PRES   REMARKS
MANITOWISH WTR CLEAR     52  39  61 S5        29.89S
ARBOR VITAE    CLEAR     54  40  58 S3        29.90S
WOODRUFF       CLEAR     54  40  58 S3        29.90S
RHINELANDER    CLEAR     52  37  56 SW5       29.91F
EAGLE RIVER    CLEAR     51  36  57 CALM      29.90F
LAND O LAKES   CLEAR     54  38  53 S3        29.91S
PHILLIPS       CLEAR     53  38  56 S5        29.89S
TOMAHAWK       CLEAR     47  39  75 CALM      29.92S
MEDFORD        PTCLDY    53  40  61 S7        29.91S
MERRILL        CLEAR     48  42  79 CALM      29.93S
$$

WIZ029-030-035-036-043>047-060600-
CENTRAL WISCONSIN

CITY           SKY/WX    TMP DP  RH WIND       PRES   REMARKS
WAUSAU         CLEAR     56  44  64 S3        29.91F
MOSINEE        CLEAR     52  39  62 S3        29.94F
MARSHFIELD     PTCLDY    54  39  57 S5        29.91F
STEVENS POINT  PTCLDY    46  37  70 CALM      29.94S
WAUPACA        CLOUDY    52  37  57 CALM      29.93F
WAUTOMA        NOT AVBL
WISC RAPIDS    PTCLDY    52  38  58 S3        29.94S
CAMP DOUGLAS   NOT AVBL
$$

WIZ011>013-019>022-031-037>040-048>050-060600-
NORTHEAST WISCONSIN

CITY           SKY/WX    TMP DP  RH WIND       PRES   REMARKS
ANTIGO         CLEAR     48  39  72 CALM      29.93S
SHAWANO        MOCLDY    58  35  42 CALM      29.91F
OCONTO         CLOUDY    50  45  82 S5        29.91S
STURGEON BAY   MOCLDY    48  37  66 S10       29.94F
GREEN BAY      MOCLDY    52  43  71 S7        29.92F
MANITOWOC      NOT AVBL
APPLETON       PTCLDY    50  34  53 S6        29.92F
CLINTONVILLE   MOCLDY    52  37  58 CALM      29.92S
OSHKOSH        CLEAR     49  38  65 S8        29.93F
$$

WIZ032>034-041-042-053>061-060600-
SOUTHWEST WISCONSIN

CITY           SKY/WX    TMP DP  RH WIND       PRES   REMARKS
LA CROSSE      CLEAR     58  44  60 S6        29.92F
SPARTA         CLEAR     48  41  76 CALM      29.95S HAZE
VIROQUA        CLEAR     57  37  46 S6        29.95F
BOSCOBEL       PTCLDY    52  42  69 SW3       29.96F
PRAIRIE DU CHI MOCLDY    54  43  66 CALM      29.96S
PLATTEVILLE    CLEAR     54  37  52 S6        29.97S
$$

WIZ056-057-062-063-064-067-068-060600-
SOUTH CENTRAL WISCONSIN

CITY           SKY/WX    TMP DP  RH WIND       PRES   REMARKS
REEDSBURG      PTCLDY    52  40  65 CALM      29.95S
BARABOO/DELLS  PTCLDY    52  36  54 S3        29.95S
LONE ROCK      NOT AVBL
MINERAL POINT  PTCLDY    59  28  31 SW5       29.97S
MADISON        CLEAR     46  36  68 CALM      29.96F
MIDDLETON      CLEAR     43  39  84 CALM      29.97F
WATERTOWN      CLEAR     45  40  83 CALM      29.96S
MONROE         CLEAR     55  34  44 W10       29.97S
JANESVILLE     CLEAR     48  41  76 CALM      29.97S
$$

WIZ051-052-058>065-066-070>072-060600-
SOUTHEAST WISCONSIN

CITY           SKY/WX    TMP DP  RH WIND       PRES   REMARKS
MILWAUKEE      PTCLDY    47  37  68 SW3       29.98S
WAUKESHA       CLEAR     45  37  76 S3        29.98S
MILWAUKEE/TIMM CLEAR     45  36  70 CALM      29.98S
RACINE         CLEAR     42  36  79 CALM      29.99S
BURLINGTON     CLEAR     41  39  95 CALM      29.98S
KENOSHA        CLEAR     42  36  79 CALM      29.98S
FOND DU LAC    CLEAR     48  39  71 S7        29.95S
SHEBOYGAN      CLEAR     42  37  82 S5        29.95F
WEST BEND      CLEAR     45  37  76 CALM      29.97S
JUNEAU         CLEAR     47  38  70 SE8       29.97S
$$

LSZ147-162-060600-
LAKE SUPERIOR

STATION/POSITION TIME  TEMP    WIND        PRES    WAVE
                       AIR SEA DIR/SP/G            HT/PER
                 (UTC) (F)     (DEG/KT/KT) (MB)    (FT/S)
W MID LAKE BUOY  0350   45 37  150/ 10/ 10 1009.6F   0
DEVILS ISLAND    0400   59     210/  5/  6 1008.7S
SAXON HARBOR     0440   65     180/  8/ 13 1008.8F
$$

LMZ867-665-643>646-060600-
LAKE MICHIGAN

STATION/POSITION TIME  TEMP    WIND        PRES    WAVE
                       AIR SEA DIR/SP/G            HT/PER
                 (UTC) (F)     (DEG/KT/KT) (MB)    (FT/S)
CHAMBERS ISLAND  0400   49     160/  5/  9 1013.2F
N MID LAKE BUOY  0350   41 39  200/  8/ 10 1013.6F   0
NORTHPORT PIER   0400   48     190/  5/  8 1013.2F
ALGOMA LAKESHORE 0400          220/  8/  9   N/A
KEWAUNEE LAKESHO 0400   47     190/  4/  6 1013.5S
SHEBOYGAN LAKESH 0400   47     200/  7/  7 1015.3F
PORT WASHINGTON  0440   45     270/  3/  3 1015.6F
S MID LAKE BUOY  0350   41 40  250/  6/  6 1015.4S   2/ 5
KENOSHA   LAKESH 0400   49     210/  5/  5 1015.2F
$$

TC  - TEMPERATURE IN CELSIUS
VSB - VISIBILITY IN STATUTE MILES
WCI - WIND CHILL INDEX
HX  - HEAT INDEX





USA.gov is the U.S. government's official web portal to all federal, state and local government web resources and services.